{"data":{"norad_id":69283,"epoch":"2026-09-19T19:17:45.663936Z","epoch_age_seconds":90223,"freshness":"FRESH","line1":"1 69283U 26118S   26262.80400074  .00000008  00000+0  30052-4 0  9998","line2":"2 69283  51.9038 337.1874 0000121 149.8599 210.2370 14.79929088 18245","mean_motion":14.79929088,"eccentricity":1.21e-5,"inclination_deg":51.9038,"raan_deg":337.1874,"arg_perigee_deg":149.8599,"mean_anomaly_deg":210.237,"bstar":3.0052e-5,"rev_number":1824,"period_min":97.301959376043,"perigee_km":629.46318542856,"apogee_km":629.63277140504,"semimajor_km":7007.6849784168,"source":"CELESTRAK","updated_at":"2026-09-20T09:00:24.780706Z"}}